^^
Saratoga-Weather Station Historical Data
Daily Summary for July 23, 2020 Units:  English    Metric   Both
Daily Weekly Monthly Yearly Custom
  High: Low: Average:
Temperature: 84.2 °F 58.8 °F 70.9 °F
Dew Point: 53.1 °F 47.1 °F 49.6 °F
Humidity: 66% 31% 49%
Wind Speed: 8mph 0mph 1.7mph
Wind Gust: 11mph - -
Wind- - SW
Pressure: 30.1 in 29.9 in -
Precipitation: 0 in    
Historical Graphs
 
 
Tabular Data for July 23, 2020
Time Temperature Dew Point Pressure Wind Wind Speed Wind Gust Humidity Rainfall Rate (Hourly) solar
00:02 67.3 °F 52 °F 30.1 in WSW 4.9 mph 5 mph 58% 0 in 0 W/m2
00:07 66.9 °F 51.6 °F 30.1 in WNW 2.9 mph 4 mph 58% 0 in 0 W/m2
00:12 66.7 °F 51.4 °F 30.1 in NW 2 mph 5 mph 58% 0 in 0 W/m2
00:17 66.7 °F 51.4 °F 30.1 in North 0.9 mph 4 mph 58% 0 in 0 W/m2
00:22 66.6 °F 51.8 °F 30.1 in West 0.9 mph 3 mph 59% 0 in 0 W/m2
00:27 66.4 °F 51.6 °F 30.1 in WNW 2 mph 5 mph 59% 0 in 0 W/m2
00:32 66.2 °F 51.4 °F 30.1 in West 2 mph 4 mph 59% 0 in 0 W/m2
00:38 65.8 °F 51.1 °F 30.1 in NW 2.9 mph 4 mph 59% 0 in 0 W/m2
00:43 65.7 °F 50.9 °F 30.1 in North 0.9 mph 4 mph 59% 0 in 0 W/m2
00:48 65.7 °F 50.9 °F 30.1 in WNW 2.9 mph 6 mph 59% 0 in 0 W/m2
00:53 65.5 °F 50.4 °F 30.1 in NW 2.9 mph 3 mph 58% 0 in 0 W/m2
00:58 65.1 °F 50.4 °F 30.1 in WNW 2.9 mph 5 mph 59% 0 in 0 W/m2
01:03 65.1 °F 50 °F 30.1 in West 2.9 mph 3 mph 58% 0 in 0 W/m2
01:08 64.8 °F 49.6 °F 30.1 in NW 2.9 mph 4 mph 58% 0 in 0 W/m2
01:13 64.8 °F 49.1 °F 30.1 in WNW 2 mph 3 mph 57% 0 in 0 W/m2
01:18 64.8 °F 49.1 °F 30.1 in Calm   8 mph 57% 0 in 0 W/m2
01:23 64.6 °F 48.9 °F 30.1 in WNW 2 mph 3 mph 57% 0 in 0 W/m2
01:28 64.4 °F 48.9 °F 30.1 in NW 4.9 mph 8 mph 57% 0 in 0 W/m2
01:33 64.2 °F 48.2 °F 30.1 in NNW 2 mph 7 mph 56% 0 in 0 W/m2
01:38 64.2 °F 48.2 °F 30.1 in West 2 mph 3 mph 56% 0 in 0 W/m2
01:43 64.2 °F 48.2 °F 30.1 in WNW 2 mph 7 mph 56% 0 in 0 W/m2
01:48 63.9 °F 48.4 °F 30.1 in WSW 2.9 mph 7 mph 57% 0 in 0 W/m2
01:53 63.9 °F 48.4 °F 30.1 in Calm   3 mph 57% 0 in 0 W/m2
01:58 63.7 °F 48.2 °F 30.1 in NW 0.9 mph 6 mph 57% 0 in 0 W/m2
02:03 63.7 °F 48.2 °F 30.1 in Calm   3 mph 57% 0 in 0 W/m2
02:08 63.3 °F 48.4 °F 30.1 in WNW 2 mph 3 mph 58% 0 in 0 W/m2
02:13 63.3 °F 48.4 °F 30.1 in WSW 2.9 mph 4 mph 58% 0 in 0 W/m2
02:18 63.1 °F 48.6 °F 30.1 in West 0.9 mph 3 mph 59% 0 in 0 W/m2
02:23 63 °F 48.4 °F 30.1 in West 5 mph 5 mph 59% 0 in 0 W/m2
02:28 62.8 °F 48.2 °F 30.1 in WNW 2 mph 6 mph 59% 0 in 0 W/m2
02:33 62.8 °F 48.2 °F 30.1 in West 2 mph 2 mph 59% 0 in 0 W/m2
02:38 62.4 °F 48.4 °F 30.1 in WSW 0.9 mph 6 mph 60% 0 in 0 W/m2
02:43 62.2 °F 48.2 °F 30.1 in SW 2 mph 4 mph 60% 0 in 0 W/m2
02:48 62.1 °F 48 °F 30.1 in Calm   3 mph 60% 0 in 0 W/m2
02:53 61.9 °F 47.8 °F 30.1 in West 2 mph 4 mph 60% 0 in 0 W/m2
02:58 61.9 °F 47.8 °F 30.1 in WNW 2.9 mph 3 mph 60% 0 in 0 W/m2
03:03 61.9 °F 47.8 °F 30.1 in Calm   2 mph 60% 0 in 0 W/m2
03:09 61.7 °F 47.7 °F 30.1 in NW 0.9 mph 3 mph 60% 0 in 0 W/m2
03:14 61.5 °F 47.5 °F 30.1 in NW 0.9 mph 4 mph 60% 0 in 0 W/m2
03:19 61.3 °F 47.3 °F 30.1 in WSW 2.9 mph 3 mph 60% 0 in 0 W/m2
03:24 61.3 °F 47.3 °F 30.1 in WNW 0.9 mph 4 mph 60% 0 in 0 W/m2
03:29 61.3 °F 47.8 °F 30.1 in NW 2 mph 2 mph 61% 0 in 0 W/m2
03:34 61.2 °F 47.7 °F 30.1 in WNW 0.9 mph 4 mph 61% 0 in 0 W/m2
03:39 61.2 °F 47.7 °F 30.1 in ESE 2.9 mph 7 mph 61% 0 in 0 W/m2
03:44 61 °F 47.5 °F 30.1 in West 2 mph 2 mph 61% 0 in 0 W/m2
03:49 61 °F 47.5 °F 30.1 in West 2 mph 3 mph 61% 0 in 0 W/m2
03:54 60.8 °F 47.7 °F 30.1 in West 2 mph 2 mph 62% 0 in 0 W/m2
03:59 60.6 °F 47.5 °F 30.1 in West 0.9 mph 5 mph 62% 0 in 0 W/m2
04:04 60.6 °F 47.5 °F 30.1 in WNW 2 mph 3 mph 62% 0 in 0 W/m2
04:09 60.6 °F 47.5 °F 30.1 in WNW 0.9 mph 3 mph 62% 0 in 0 W/m2
04:14 60.4 °F 47.3 °F 30.1 in Calm   3 mph 62% 0 in 0 W/m2
04:19 60.3 °F 47.7 °F 30.1 in WSW 0.9 mph 3 mph 63% 0 in 0 W/m2
04:25 60.3 °F 47.7 °F 30.1 in WNW 0.9 mph 1 mph 63% 0 in 0 W/m2
04:30 60.3 °F 47.7 °F 30.1 in WSW 4.9 mph 6 mph 63% 0 in 0 W/m2
04:35 60.3 °F 47.7 °F 30 in West 2 mph 4 mph 63% 0 in 0 W/m2
04:40 60.3 °F 47.7 °F 30 in Calm   3 mph 63% 0 in 0 W/m2
04:45 60.3 °F 47.7 °F 30 in West 0.9 mph 4 mph 63% 0 in 0 W/m2
04:50 60.3 °F 47.7 °F 30 in WSW 2 mph 4 mph 63% 0 in 0 W/m2
04:55 60.1 °F 47.5 °F 30 in NW 0.9 mph 3 mph 63% 0 in 0 W/m2
05:00 60.1 °F 47.8 °F 30 in WNW 2 mph 2 mph 64% 0 in 0 W/m2
05:05 59.7 °F 47.5 °F 30 in WNW 0.9 mph 2 mph 64% 0 in 0 W/m2
05:10 59.5 °F 47.3 °F 30 in Calm   4 mph 64% 0 in 0 W/m2
05:16 59.5 °F 47.3 °F 30 in West 2 mph 3 mph 64% 0 in 0 W/m2
05:21 59.5 °F 47.3 °F 30 in West 4 mph 4 mph 64% 0 in 0 W/m2
05:26 59.4 °F 47.7 °F 30 in WNW 2 mph 2 mph 65% 0 in 0 W/m2
05:31 59.4 °F 47.7 °F 30 in WNW 2.9 mph 3 mph 65% 0 in 0 W/m2
05:36 59.4 °F 47.7 °F 30 in WNW 2 mph 3 mph 65% 0 in 0 W/m2
05:41 59.4 °F 47.7 °F 30 in West 2 mph 3 mph 65% 0 in 0 W/m2
05:46 59.4 °F 47.7 °F 30 in SW 2.9 mph 3 mph 65% 0 in 0 W/m2
05:51 59.2 °F 47.5 °F 30 in WSW 2 mph 2 mph 65% 0 in 0 W/m2
05:56 59.2 °F 47.5 °F 30 in Calm   2 mph 65% 0 in 0 W/m2
06:01 59 °F 47.3 °F 30 in West 2 mph 3 mph 65% 0 in 5 W/m2
06:06 58.8 °F 47.5 °F 30 in West 0.9 mph 2 mph 66% 0 in 7 W/m2
06:11 58.8 °F 47.5 °F 30 in West 2 mph 3 mph 66% 0 in 9 W/m2
06:16 58.8 °F 47.5 °F 30 in West 0.9 mph 2 mph 66% 0 in 11 W/m2
06:26 58.8 °F 47.5 °F 30 in WSW 2.9 mph 3 mph 66% 0 in 14 W/m2
06:31 58.8 °F 47.5 °F 30 in West 2 mph 2 mph 66% 0 in 18 W/m2
06:36 58.8 °F 47.5 °F 30 in SW 2 mph 4 mph 66% 0 in 19 W/m2
06:41 58.8 °F 47.5 °F 30 in NW 0.9 mph 2 mph 66% 0 in 21 W/m2
06:46 59 °F 47.3 °F 30 in Calm   4 mph 65% 0 in 23 W/m2
06:51 59 °F 47.7 °F 30 in WNW 2 mph 2 mph 66% 0 in 25 W/m2
06:57 59.2 °F 47.5 °F 30 in NNW 0.9 mph 5 mph 65% 0 in 25 W/m2
07:02 59.2 °F 47.5 °F 30 in NW 0.9 mph 4 mph 65% 0 in 26 W/m2
07:07 59.2 °F 47.5 °F 30 in WNW 0.9 mph 5 mph 65% 0 in 28 W/m2
07:12 59.4 °F 47.7 °F 30 in North 0.9 mph 2 mph 65% 0 in 30 W/m2
07:17 59.4 °F 47.7 °F 30 in WNW 2 mph 3 mph 65% 0 in 32 W/m2
07:22 59.4 °F 47.7 °F 30 in NNW 2 mph 2 mph 65% 0 in 32 W/m2
07:27 59.4 °F 47.7 °F 30 in Calm   3 mph 65% 0 in 32 W/m2
07:32 59.5 °F 47.8 °F 30 in Calm   1 mph 65% 0 in 32 W/m2
07:37 59.5 °F 47.8 °F 30 in WNW 2 mph 2 mph 65% 0 in 33 W/m2
07:42 59.5 °F 47.8 °F 30 in NNE 2 mph 3 mph 65% 0 in 35 W/m2
07:47 59.7 °F 48 °F 30 in WNW 2 mph 3 mph 65% 0 in 37 W/m2
07:52 59.9 °F 48 °F 30 in Calm   2 mph 65% 0 in 39 W/m2
07:57 60.1 °F 48.2 °F 30 in NW 4 mph 4 mph 65% 0 in 153 W/m2
08:02 60.3 °F 48.4 °F 30 in NNW 2.9 mph 5 mph 65% 0 in 221 W/m2
08:07 60.4 °F 48.2 °F 30 in NW 0.9 mph 2 mph 64% 0 in 241 W/m2
08:12 60.8 °F 48.6 °F 30 in WNW 2 mph 5 mph 64% 0 in 246 W/m2
08:17 61.2 °F 48.9 °F 30 in WNW 0.9 mph 3 mph 64% 0 in 265 W/m2
08:22 61.5 °F 48.4 °F 30 in NNW 2 mph 6 mph 62% 0 in 279 W/m2
08:27 61.9 °F 49.1 °F 30 in NNE 2.9 mph 4 mph 63% 0 in 216 W/m2
08:32 62.2 °F 49.1 °F 30 in WNW 2 mph 6 mph 62% 0 in 120 W/m2
08:37 62.8 °F 49.6 °F 30 in Calm   1 mph 62% 0 in 47 W/m2
08:42 63.3 °F 49.6 °F 30 in NNW 2.9 mph 3 mph 61% 0 in 46 W/m2
08:47 63.9 °F 50.2 °F 30 in ESE 2.9 mph 3 mph 61% 0 in 46 W/m2
08:52 64.4 °F 50.2 °F 30 in NE 0.9 mph 5 mph 60% 0 in 44 W/m2
08:57 64.9 °F 50.2 °F 30 in North 0.9 mph 3 mph 59% 0 in 46 W/m2
09:02 64.9 °F 49.8 °F 30 in West 0.9 mph 2 mph 58% 0 in 47 W/m2
09:07 65.1 °F 50 °F 30 in WNW 2 mph 3 mph 58% 0 in 51 W/m2
09:12 65.5 °F 50.4 °F 30 in Calm   1 mph 58% 0 in 53 W/m2
09:17 65.7 °F 50.9 °F 30 in NNW 0.9 mph 2 mph 59% 0 in 113 W/m2
09:22 66 °F 50.9 °F 30 in East 2 mph 3 mph 58% 0 in 343 W/m2
09:27 66.4 °F 50.7 °F 30 in NE 2 mph 4 mph 57% 0 in 429 W/m2
09:32 66.6 °F 51.3 °F 30 in NNW 2.9 mph 3 mph 58% 0 in 448 W/m2
09:37 66.7 °F 51.1 °F 30 in NNW 0.9 mph 3 mph 57% 0 in 468 W/m2
09:42 66.7 °F 50.5 °F 30 in NNW 0.9 mph 1 mph 56% 0 in 487 W/m2
09:47 67.3 °F 51.4 °F 30 in NE 2.9 mph 3 mph 57% 0 in 503 W/m2
09:52 68.2 °F 51.4 °F 30 in Calm   3 mph 55% 0 in 519 W/m2
09:57 68.9 °F 51.6 °F 30 in North 4.9 mph 6 mph 54% 0 in 531 W/m2
10:02 69.1 °F 51.3 °F 30 in Calm   4 mph 53% 0 in 499 W/m2
10:07 69.1 °F 51.8 °F 30 in NNW 0.9 mph 3 mph 54% 0 in 53 W/m2
10:12 69.4 °F 51.6 °F 30 in ENE 2.9 mph 8 mph 53% 0 in 568 W/m2
10:17 69.8 °F 51.4 °F 30 in ESE 2 mph 4 mph 52% 0 in 578 W/m2
10:23 70 °F 51.6 °F 30 in ENE 0.9 mph 3 mph 52% 0 in 591 W/m2
10:28 70.2 °F 51.3 °F 30 in NW 0.9 mph 3 mph 51% 0 in 605 W/m2
10:33 70.5 °F 50.9 °F 30 in NE 0.9 mph 3 mph 50% 0 in 615 W/m2
10:38 71.1 °F 51.4 °F 30 in WNW 0.9 mph 2 mph 50% 0 in 629 W/m2
10:43 71.2 °F 50 °F 30 in ENE 0.9 mph 8 mph 47% 0 in 642 W/m2
10:48 71.2 °F 49.5 °F 30 in ENE 0.9 mph 3 mph 46% 0 in 652 W/m2
10:53 71.1 °F 49.8 °F 30 in NW 2 mph 3 mph 47% 0 in 661 W/m2
10:58 71.4 °F 50.2 °F 30 in NE 2.9 mph 5 mph 47% 0 in 673 W/m2
11:03 71.8 °F 49.8 °F 30 in East 2 mph 8 mph 46% 0 in 687 W/m2
11:13 71.8 °F 50.5 °F 30 in SE 2 mph 8 mph 47% 0 in 701 W/m2
11:18 71.6 °F 50.4 °F 30 in NNW 0.9 mph 4 mph 47% 0 in 714 W/m2
11:23 71.8 °F 50.5 °F 30 in NE 2.9 mph 4 mph 47% 0 in 724 W/m2
11:28 71.8 °F 49.8 °F 30 in NNW 2 mph 4 mph 46% 0 in 737 W/m2
11:33 71.8 °F 50.5 °F 30 in NE 4.9 mph 5 mph 47% 0 in 751 W/m2
11:38 72.1 °F 50.2 °F 30 in East 4 mph 4 mph 46% 0 in 758 W/m2
11:43 72.1 °F 50.2 °F 30 in Calm   2 mph 46% 0 in 775 W/m2
11:48 72.1 °F 50.2 °F 30 in SSW 0.9 mph 4 mph 46% 0 in 761 W/m2
11:53 72.1 °F 49.6 °F 30 in ENE 0.9 mph 2 mph 45% 0 in 666 W/m2
11:58 72.3 °F 50.4 °F 30 in ESE 2.9 mph 6 mph 46% 0 in 621 W/m2
12:03 72.9 °F 50.4 °F 30 in ENE 0.9 mph 4 mph 45% 0 in 731 W/m2
12:08 73 °F 49.8 °F 30 in NE 0.9 mph 4 mph 44% 0 in 661 W/m2
12:13 73.2 °F 50 °F 30 in NNW 0.9 mph 3 mph 44% 0 in 722 W/m2
12:18 73.8 °F 50.5 °F 30 in NNE 2.9 mph 4 mph 44% 0 in 793 W/m2
12:23 74.3 °F 49.6 °F 30 in SE 2 mph 4 mph 42% 0 in 835 W/m2
12:28 74.5 °F 49.8 °F 30 in NE 2 mph 3 mph 42% 0 in 606 W/m2
12:33 74.5 °F 49.3 °F 30 in West 2 mph 3 mph 41% 0 in 793 W/m2
12:38 74.8 °F 50.2 °F 30 in ESE 2.9 mph 4 mph 42% 0 in 722 W/m2
12:43 75.6 °F 49.5 °F 30 in Calm   3 mph 40% 0 in 729 W/m2
12:48 75.7 °F 48.4 °F 30 in WNW 2 mph 4 mph 38% 0 in 712 W/m2
12:53 75.9 °F 49.1 °F 30 in WSW 4 mph 4 mph 39% 0 in 835 W/m2
12:59 75.9 °F 49.1 °F 30 in West 4 mph 5 mph 39% 0 in 796 W/m2
13:04 76.5 °F 50.4 °F 30 in ENE 0.9 mph 2 mph 40% 0 in 826 W/m2
13:09 76.8 °F 49.3 °F 30 in SW 0.9 mph 3 mph 38% 0 in 877 W/m2
13:14 76.8 °F 49.3 °F 30 in SW 2 mph 3 mph 38% 0 in 830 W/m2
13:19 77 °F 49.5 °F 30 in WNW 0.9 mph 4 mph 38% 0 in 802 W/m2
13:24 77.2 °F 49.6 °F 30 in Calm   2 mph 38% 0 in 745 W/m2
13:29 77.5 °F 49.3 °F 30 in NW 2 mph 4 mph 37% 0 in 728 W/m2
13:34 77.5 °F 47.7 °F 30 in NE 0.9 mph 7 mph 35% 0 in 886 W/m2
13:39 77.7 °F 47.1 °F 30 in NNE 0.9 mph 3 mph 34% 0 in 879 W/m2
13:44 78.3 °F 48.4 °F 30 in ENE 0.9 mph 6 mph 35% 0 in 872 W/m2
13:49 78.3 °F 47.7 °F 30 in NW 2.9 mph 5 mph 34% 0 in 914 W/m2
13:54 78.3 °F 48.4 °F 30 in ENE 2 mph 5 mph 35% 0 in 860 W/m2
13:59 78.3 °F 49.1 °F 30 in East 4 mph 8 mph 36% 0 in 895 W/m2
14:04 78.4 °F 48.6 °F 30 in West 2 mph 3 mph 35% 0 in 805 W/m2
14:09 79 °F 48.9 °F 30 in ESE 6 mph 8 mph 35% 0 in 928 W/m2
14:14 79.2 °F 48.4 °F 30 in East 2 mph 6 mph 34% 0 in 916 W/m2
14:19 79.2 °F 49.1 °F 30 in Calm   8 mph 35% 0 in 914 W/m2
14:24 79.3 °F 48.6 °F 30 in ESE 2.9 mph 4 mph 34% 0 in 898 W/m2
14:29 79 °F 48.9 °F 30 in ESE 2.9 mph 4 mph 35% 0 in 870 W/m2
14:34 78.8 °F 49.6 °F 30 in West 0.9 mph 4 mph 36% 0 in 863 W/m2
14:39 79.2 °F 49.1 °F 30 in ESE 2.9 mph 4 mph 35% 0 in 684 W/m2
14:44 79.3 °F 48.6 °F 30 in WNW 0.9 mph 3 mph 34% 0 in 872 W/m2
14:49 80.1 °F 49.1 °F 30 in NNE 0.9 mph 6 mph 34% 0 in 830 W/m2
14:54 80.1 °F 49.1 °F 30 in WNW 2.9 mph 4 mph 34% 0 in 868 W/m2
14:59 80.2 °F 50.2 °F 30 in ENE 2 mph 3 mph 35% 0 in 865 W/m2
15:04 80.8 °F 49.8 °F 30 in NNW 8 mph 8 mph 34% 0 in 860 W/m2
15:09 80.4 °F 49.5 °F 30 in NNE 2 mph 3 mph 34% 0 in 831 W/m2
15:14 80.4 °F 49.5 °F 30 in NNW 2 mph 4 mph 34% 0 in 853 W/m2
15:19 81 °F 49.1 °F 30 in WSW 2.9 mph 3 mph 33% 0 in 847 W/m2
15:24 81 °F 50 °F 30 in WNW 2 mph 4 mph 34% 0 in 817 W/m2
15:29 80.4 °F 48.7 °F 30 in NNW 0.9 mph 4 mph 33% 0 in 830 W/m2
15:34 81.1 °F 50.2 °F 30 in ESE 2.9 mph 3 mph 34% 0 in 814 W/m2
15:39 81.5 °F 50.4 °F 29.9 in ENE 2.9 mph 4 mph 34% 0 in 805 W/m2
15:44 81.7 °F 48.9 °F 29.9 in WNW 0.9 mph 3 mph 32% 0 in 800 W/m2
15:49 81.9 °F 50 °F 29.9 in ENE 4.9 mph 6 mph 33% 0 in 779 W/m2
15:54 81.9 °F 50 °F 29.9 in NW 2 mph 2 mph 33% 0 in 742 W/m2
15:59 82 °F 49.3 °F 29.9 in NNW 2.9 mph 4 mph 32% 0 in 777 W/m2
16:04 82 °F 50.2 °F 29.9 in East 2 mph 4 mph 33% 0 in 759 W/m2
16:09 82.2 °F 49.5 °F 29.9 in NE 2.9 mph 6 mph 32% 0 in 754 W/m2
16:14 81.9 °F 49.1 °F 29.9 in Calm   6 mph 32% 0 in 749 W/m2
16:19 81.9 °F 50 °F 29.9 in SE 2 mph 4 mph 33% 0 in 740 W/m2
16:24 82 °F 49.3 °F 29.9 in East 0.9 mph 10 mph 32% 0 in 735 W/m2
16:29 82.2 °F 49.5 °F 29.9 in ENE 2 mph 6 mph 32% 0 in 726 W/m2
16:34 82.4 °F 48.7 °F 29.9 in ENE 4 mph 9 mph 31% 0 in 726 W/m2
16:39 82.8 °F 50.7 °F 29.9 in ENE 0.9 mph 3 mph 33% 0 in 638 W/m2
16:44 83.1 °F 50.2 °F 29.9 in NNE 2 mph 8 mph 32% 0 in 724 W/m2
16:49 83.5 °F 50.5 °F 29.9 in NNE 2 mph 7 mph 32% 0 in 696 W/m2
16:54 83.3 °F 49.5 °F 29.9 in North 2.9 mph 11 mph 31% 0 in 722 W/m2
16:59 82.8 °F 49.1 °F 29.9 in ESE 2 mph 6 mph 31% 0 in 668 W/m2
17:04 82.9 °F 50 °F 29.9 in NNW 2 mph 3 mph 32% 0 in 589 W/m2
17:09 83.1 °F 50.2 °F 29.9 in East 2 mph 6 mph 32% 0 in 575 W/m2
17:14 83.5 °F 49.6 °F 29.9 in East 2 mph 2 mph 31% 0 in 557 W/m2
17:19 83.8 °F 50 °F 29.9 in NW 2 mph 6 mph 31% 0 in 420 W/m2
17:24 83.3 °F 50.4 °F 29.9 in ENE 2.9 mph 4 mph 32% 0 in 478 W/m2
17:29 83.1 °F 49.3 °F 29.9 in West 6 mph 6 mph 31% 0 in 612 W/m2
17:34 83.1 °F 50.2 °F 29.9 in SW 2.9 mph 5 mph 32% 0 in 647 W/m2
17:39 83.5 °F 51.4 °F 29.9 in NE 2 mph 3 mph 33% 0 in 613 W/m2
17:44 83.7 °F 51.4 °F 29.9 in NNW 0.9 mph 7 mph 33% 0 in 582 W/m2
17:49 84.2 °F 51.1 °F 29.9 in NNE 0.9 mph 4 mph 32% 0 in 550 W/m2
17:54 83.8 °F 50 °F 29.9 in ESE 4 mph 8 mph 31% 0 in 541 W/m2
17:59 83.5 °F 50.5 °F 29.9 in NW 2 mph 9 mph 32% 0 in 512 W/m2
18:04 83.1 °F 50.2 °F 29.9 in West 0.9 mph 4 mph 32% 0 in 485 W/m2
18:09 82.9 °F 50 °F 29.9 in WNW 2.9 mph 5 mph 32% 0 in 519 W/m2
18:14 82.8 °F 49.8 °F 29.9 in NW 2.9 mph 5 mph 32% 0 in 476 W/m2
18:19 82.9 °F 50.9 °F 29.9 in ESE 0.9 mph 2 mph 33% 0 in 394 W/m2
18:24 83.1 °F 49.3 °F 29.9 in NE 2.9 mph 6 mph 31% 0 in 399 W/m2
18:29 82.8 °F 49.8 °F 29.9 in NNE 4.9 mph 7 mph 32% 0 in 339 W/m2
18:34 82.8 °F 50.7 °F 29.9 in NNW 2 mph 3 mph 33% 0 in 411 W/m2
18:39 82.2 °F 49.5 °F 29.9 in NNW 2.9 mph 6 mph 32% 0 in 153 W/m2
18:44 82 °F 50.2 °F 29.9 in North 2 mph 4 mph 33% 0 in 443 W/m2
18:49 82.2 °F 50.2 °F 29.9 in NNE 0.9 mph 6 mph 33% 0 in 404 W/m2
18:54 82.6 °F 49.8 °F 29.9 in NNE 2.9 mph 3 mph 32% 0 in 371 W/m2
18:59 82.6 °F 49.8 °F 29.9 in ENE 4 mph 4 mph 32% 0 in 269 W/m2
19:05 82.2 °F 50.2 °F 29.9 in NNW 0.9 mph 4 mph 33% 0 in 279 W/m2
19:10 82.4 °F 51.3 °F 29.9 in NE 0.9 mph 2 mph 34% 0 in 260 W/m2
19:15 82.6 °F 49.8 °F 29.9 in ENE 0.9 mph 3 mph 32% 0 in 232 W/m2
19:20 82 °F 50.2 °F 29.9 in ENE 2 mph 2 mph 33% 0 in 244 W/m2
19:25 81.7 °F 50.5 °F 29.9 in East 8 mph 8 mph 34% 0 in 81 W/m2
19:30 80.8 °F 49.8 °F 29.9 in NE 4 mph 5 mph 34% 0 in 83 W/m2
19:35 80.1 °F 50 °F 29.9 in ESE 0.9 mph 2 mph 35% 0 in 91 W/m2
19:40 79.7 °F 50.4 °F 29.9 in Calm   2 mph 36% 0 in 95 W/m2
19:45 79.5 °F 50.2 °F 29.9 in WSW 0.9 mph 3 mph 36% 0 in 81 W/m2
19:50 79.2 °F 49.8 °F 29.9 in NE 0.9 mph 2 mph 36% 0 in 79 W/m2
19:55 79.2 °F 50.7 °F 29.9 in East 0.9 mph 3 mph 37% 0 in 132 W/m2
20:00 79 °F 50.5 °F 29.9 in Calm   1 mph 37% 0 in 123 W/m2
20:05 79.2 °F 49.8 °F 29.9 in North 4 mph 4 mph 36% 0 in 155 W/m2
20:10 79.2 °F 50.7 °F 29.9 in WNW 0.9 mph 2 mph 37% 0 in 102 W/m2
20:15 79 °F 49.8 °F 29.9 in ENE 2 mph 2 mph 36% 0 in 90 W/m2
20:20 78.6 °F 50.2 °F 29.9 in WNW 0.9 mph 3 mph 37% 0 in 74 W/m2
20:25 78.4 °F 50.7 °F 29.9 in West 2 mph 4 mph 38% 0 in 65 W/m2
20:30 78.1 °F 50.4 °F 29.9 in West 0.9 mph 2 mph 38% 0 in 53 W/m2
20:35 77.7 °F 50 °F 29.9 in WNW 0.9 mph 2 mph 38% 0 in 42 W/m2
20:40 77.5 °F 50.5 °F 29.9 in North 0.9 mph 1 mph 39% 0 in 37 W/m2
20:45 77.4 °F 50.5 °F 29.9 in Calm   2 mph 39% 0 in 33 W/m2
20:50 77.2 °F 51.1 °F 29.9 in Calm     40% 0 in 28 W/m2
20:55 76.8 °F 52 °F 29.9 in Calm   2 mph 42% 0 in 25 W/m2
21:00 76.5 °F 52.9 °F 29.9 in Calm     44% 0 in 16 W/m2
21:05 75.9 °F 53.1 °F 29.9 in North 0.9 mph 1 mph 45% 0 in 11 W/m2
21:10 75.6 °F 52.2 °F 29.9 in Calm   1 mph 44% 0 in 7 W/m2
21:15 75 °F 52.2 °F 29.9 in North 0.9 mph 1 mph 45% 0 in 5 W/m2
21:20 74.7 °F 52.5 °F 29.9 in Calm   1 mph 46% 0 in 0 W/m2
21:25 74.5 °F 52.9 °F 29.9 in North 0.9 mph 1 mph 47% 0 in 0 W/m2
21:30 73.9 °F 52.5 °F 29.9 in Calm     47% 0 in 0 W/m2
21:36 73.8 °F 52.9 °F 29.9 in Calm     48% 0 in 0 W/m2
21:41 73.2 °F 52.3 °F 29.9 in Calm     48% 0 in 0 W/m2
21:46 72.9 °F 52 °F 29.9 in Calm   1 mph 48% 0 in 0 W/m2
21:51 72.7 °F 52.3 °F 29.9 in Calm   1 mph 49% 0 in 0 W/m2
21:56 72.1 °F 52.5 °F 29.9 in North 0.9 mph 1 mph 50% 0 in 0 W/m2
22:01 72 °F 52.9 °F 29.9 in Calm   1 mph 51% 0 in 0 W/m2
22:06 71.8 °F 52.7 °F 29.9 in Calm   1 mph 51% 0 in 0 W/m2
22:11 71.4 °F 52.3 °F 29.9 in Calm     51% 0 in 0 W/m2
22:16 71.2 °F 52.2 °F 29.9 in Calm   1 mph 51% 0 in 0 W/m2
22:21 71.2 °F 52.7 °F 29.9 in Calm     52% 0 in 0 W/m2
22:26 71.1 °F 52.5 °F 29.9 in Calm     52% 0 in 0 W/m2
22:31 70.9 °F 52.3 °F 29.9 in Calm     52% 0 in 0 W/m2
22:36 70.9 °F 52.9 °F 29.9 in Calm     53% 0 in 0 W/m2
22:41 70.5 °F 52.5 °F 29.9 in Calm     53% 0 in 0 W/m2
22:46 70.5 °F 52.5 °F 29.9 in North 0.9 mph 2 mph 53% 0 in 0 W/m2
22:51 70.5 °F 52.5 °F 29.9 in Calm   1 mph 53% 0 in 0 W/m2
22:56 70.5 °F 53.1 °F 29.9 in Calm     54% 0 in 0 W/m2
23:01 70.3 °F 52.3 °F 29.9 in North 0.9 mph 2 mph 53% 0 in 0 W/m2
23:06 70.3 °F 52.3 °F 29.9 in WSW 0.9 mph 3 mph 53% 0 in 0 W/m2
23:11 70.3 °F 52.9 °F 29.9 in Calm   1 mph 54% 0 in 0 W/m2
23:16 70.3 °F 52.9 °F 29.9 in Calm   1 mph 54% 0 in 0 W/m2
23:21 70.3 °F 52.9 °F 29.9 in Calm   1 mph 54% 0 in 0 W/m2
23:26 70.2 °F 52.7 °F 29.9 in Calm     54% 0 in 0 W/m2
23:31 70.2 °F 52.7 °F 29.9 in Calm     54% 0 in 0 W/m2
23:36 70 °F 53.1 °F 29.9 in WSW 0.9 mph 1 mph 55% 0 in 0 W/m2
23:41 69.8 °F 52.9 °F 29.9 in Calm   2 mph 55% 0 in 0 W/m2
23:46 69.6 °F 52.7 °F 29.9 in Calm   1 mph 55% 0 in 0 W/m2
23:51 69.6 °F 52.7 °F 29.9 in Calm     55% 0 in 0 W/m2
23:56 69.4 °F 53.1 °F 29.9 in Calm     56% 0 in 0 W/m2
Juneau County Weather
Compliments of Weather Underground - 4 mb